Hourly Data Report for July 17, 2021

WRIGLEY A
NORTHWEST TERRITORIES
Current Station Operator: NAVCAN

63°12'35.000" N
123°26'12.000" W
149.70 m
2204005
YWY

Download Data

Hourly Data (July 2021)
Hourly Data Report for July 17, 2021
TIME
LST
Temp Definition
°C
Dew Point Definition
°C
Rel Hum Definition
%
Precip. Amount Definition
mm

Wind Dir Definition
10's deg

Wind Spd Definition
km/h
Visibility Definition
km
Stn Press Definition
kPa
Hmdx Definition


Wind Chill Definition


Weather Definition


00:00 12.9 3.1 51 LegendMM 13 7 LegendMM 100.29     LegendNANA
01:00 11.9 2.8 53 LegendMM 12 12 LegendMM 100.34     LegendNANA
02:00 11.8 2.8 54 LegendMM 13 12 LegendMM 100.37     LegendNANA
03:00 11.0 4.0 62 LegendMM 12 12 LegendMM 100.39     LegendNANA
04:00 10.4 4.3 66 LegendMM 13 11 LegendMM 100.42     LegendNANA
05:00 9.1 5.0 75 LegendMM 14 10 LegendMM 100.45     LegendNANA
06:00 9.7 5.0 73 LegendMM 14 11 LegendMM 100.48     LegendNANA
07:00 10.3 6.2 76 LegendMM 15 13 LegendMM 100.50     LegendNANA
08:00 11.8 5.3 64 LegendMM 14 18 LegendMM 100.49     LegendNANA
09:00 13.1 5.2 58 LegendMM 14 20 LegendMM 100.50     LegendNANA
10:00 14.9 6.3 56 LegendMM 14 19 LegendMM 100.49     LegendNANA
11:00 16.8 5.9 48 LegendMM 14 19 LegendMM 100.45     LegendNANA
12:00 18.2 5.1 42 LegendMM 14 22 LegendMM 100.43     LegendNANA
13:00 19.2 4.6 38 LegendMM 14 20 LegendMM 100.40     LegendNANA
14:00 20.1 3.2 32 LegendMM 14 21 LegendMM 100.35     LegendNANA
15:00 20.7 3.8 33 LegendMM 14 21 LegendMM 100.31     LegendNANA
16:00 21.4 4.2 32 LegendMM 14 22 LegendMM 100.27     LegendNANA
17:00 21.5 3.0 29 LegendMM 14 21 LegendMM 100.24     LegendNANA
18:00 21.5 4.5 32 LegendMM 14 22 LegendMM 100.21     LegendNANA
19:00 21.1 6.6 39 LegendMM 15 16 LegendMM 100.19     LegendNANA
20:00 20.4 6.2 39 LegendMM 15 18 LegendMM 100.18     LegendNANA
21:00 19.4 6.7 43 LegendMM 15 17 LegendMM 100.20     LegendNANA
22:00 18.0 8.4 53 LegendMM 15 16 LegendMM 100.20     LegendNANA
23:00 16.4 8.5 59 LegendMM 13 10 LegendMM 100.20     LegendNANA

Notes on Data Quality.

Legend

  • E = Estimated
  • M = Missing
  • NA = Not Available*
  • [empty] = Indicates an unobserved value
Date modified: